Burlington, WA
on Friday, November 16, 2012

Friday
Previous Day Next Day
Daily Summary
 ActualAverage (KBLI)Record (KBLI)
Temperature
Mean Temperature °F 43°F  
Max Temperature 51°F 50°F 63°F (1976)
Min Temperature 32°F 37°F 18°F (1959)
Degree Days
Heating Degree Days 24 22  
Month to date heating degree days 323  
Cooling Degree Days 0 0  
Month to date cooling degree days 0  
Year to date cooling degree days 42  
Moisture
Dew Point 40°F   
Average Humidity 91    
Maximum Humidity 100    
Minimum Humidity 62    
Precipitation
Precipitation 0.06 in 0.21 in 1.22 in (1973)
Month to date precipitation 3.15  
Year to date precipitation 28.96  
Wind
Wind Speed 3 mph   
Max Wind Speed 14 mph   
Max Gust Speed mph   
Visibility 7 miles   
Events     

Key: T is trace of precipitation, MM is missing value
Source: NWS Daily Summary
Time(PST)TemperatureDew PointHumidity Pressure Visibility Wind DirectionWind SpeedGust SpeedPrecipitationEvents Conditions
12:15 AM 39.2°F 39.2°F 100% 29.95 in 0.2 miles Calm Calm - 0.00 in   Overcast
12:35 AM 37.4°F 37.4°F 100% 29.95 in 0.2 miles Calm Calm - 0.00 in   Overcast
12:55 AM 37.4°F 37.4°F 100% 29.95 in 0.2 miles Calm Calm - 0.00 in   Overcast
1:15 AM 37.4°F 37.4°F 100% 29.95 in 0.2 miles Calm Calm - 0.00 in   Overcast
1:35 AM 37.4°F 37.4°F 100% 29.94 in 0.5 miles Calm Calm - 0.00 in   Overcast
1:55 AM 35.6°F 35.6°F 100% 29.94 in 0.5 miles Calm Calm - 0.00 in   Overcast
2:15 AM 35.6°F 35.6°F 100% 29.94 in 0.5 miles Calm Calm - 0.00 in   Mostly Cloudy
2:35 AM 35.6°F 35.6°F 100% 29.94 in 0.2 miles Calm Calm - 0.00 in   Overcast
2:55 AM 35.6°F 35.6°F 100% 29.93 in 0.8 miles Calm Calm - 0.00 in   Mostly Cloudy
3:15 AM 33.8°F 33.8°F 100% 29.93 in 1.5 miles NNW 3.5 mph - 0.00 in   Clear
3:35 AM 33.8°F 33.8°F 100% 29.93 in 3.0 miles Calm Calm - 0.00 in   Clear
3:55 AM 33.8°F 33.8°F 100% 29.92 in 0.8 miles Calm Calm - 0.00 in   Mostly Cloudy
4:15 AM 32.0°F 32.0°F 100% 29.93 in 0.5 miles Calm Calm - 0.00 in   Overcast
4:35 AM 32.0°F 32.0°F 100% 29.92 in 2.5 miles Calm Calm - 0.00 in   Overcast
4:55 AM 33.8°F 33.8°F 100% 29.92 in 7.0 miles Calm Calm - 0.00 in   Mostly Cloudy
5:15 AM 33.8°F 33.8°F 100% 29.92 in 4.0 miles Calm Calm - 0.00 in   Mostly Cloudy
5:35 AM 33.8°F 33.8°F 100% 29.92 in 2.5 miles Calm Calm - 0.00 in   Scattered Clouds
5:55 AM 33.8°F 33.8°F 100% 29.91 in 1.0 miles Calm Calm - 0.00 in   Mostly Cloudy
6:15 AM 33.8°F 33.8°F 100% 29.91 in 3.0 miles Calm Calm - 0.00 in   Mostly Cloudy
6:35 AM 35.6°F 35.6°F 100% 29.90 in 8.0 miles Calm Calm - 0.00 in   Mostly Cloudy
6:55 AM 35.6°F 35.6°F 100% 29.90 in 7.0 miles Calm Calm - 0.00 in   Overcast
7:15 AM 35.6°F 35.6°F 100% 29.90 in 9.0 miles Calm Calm - 0.00 in   Overcast
7:35 AM 35.6°F 35.6°F 100% 29.90 in 6.0 miles Calm Calm - 0.00 in   Overcast
7:55 AM 35.6°F 35.6°F 100% 29.90 in 5.0 miles ENE 3.5 mph - 0.00 in   Overcast
8:15 AM 37.4°F 37.4°F 100% 29.90 in 5.0 miles Calm Calm - 0.00 in   Overcast
8:35 AM 37.4°F 37.4°F 100% 29.91 in 5.0 miles Calm Calm - 0.00 in   Overcast
8:55 AM 37.4°F 37.4°F 100% 29.90 in 8.0 miles East 4.6 mph - 0.00 in   Overcast
9:15 AM 37.4°F 37.4°F 100% 29.90 in 10.0 miles Calm Calm - 0.00 in   Mostly Cloudy
9:35 AM 39.2°F 39.2°F 100% 29.90 in 9.0 miles East 4.6 mph - 0.00 in   Partly Cloudy
9:55 AM 42.8°F 42.8°F 100% 29.91 in 10.0 miles East 4.6 mph - 0.00 in   Mostly Cloudy
10:15 AM 44.6°F 42.8°F 93% 29.91 in 10.0 miles Calm Calm - 0.00 in   Overcast
10:35 AM 44.6°F 41.0°F 87% 29.91 in 9.0 miles Calm Calm - 0.00 in   Overcast
10:55 AM 44.6°F 41.0°F 87% 29.91 in 10.0 miles Calm Calm - 0.00 in   Overcast
11:15 AM 44.6°F 41.0°F 87% 29.90 in 9.0 miles East 3.5 mph - 0.00 in   Overcast
11:35 AM 46.4°F 42.8°F 87% 29.90 in 10.0 miles SSE 3.5 mph - 0.00 in   Overcast
11:55 AM 48.2°F 42.8°F 82% 29.89 in 9.0 miles ESE 5.8 mph - 0.00 in   Overcast
12:15 PM 48.2°F 42.8°F 82% 29.88 in 10.0 miles ESE 6.9 mph - 0.00 in   Overcast
12:35 PM 48.2°F 42.8°F 82% 29.87 in 10.0 miles ESE 5.8 mph - 0.00 in   Mostly Cloudy
12:55 PM 48.2°F 42.8°F 82% 29.87 in 10.0 miles SE 4.6 mph - 0.00 in   Mostly Cloudy
1:15 PM 50.0°F 39.2°F 66% 29.86 in 10.0 miles SSE 5.8 mph - 0.00 in   Mostly Cloudy
1:35 PM 51.8°F 39.2°F 62% 29.85 in 10.0 miles SE 8.1 mph - 0.00 in   Mostly Cloudy
1:55 PM 51.8°F 41.0°F 67% 29.85 in 10.0 miles SSE 10.4 mph - 0.00 in   Overcast
2:15 PM 51.8°F 41.0°F 67% 29.84 in 10.0 miles SSE 9.2 mph - 0.00 in   Overcast
2:35 PM 51.8°F 42.8°F 71% 29.84 in 10.0 miles SSE 5.8 mph - 0.00 in   Overcast
3:15 PM 51.8°F 42.8°F 71% 29.82 in 10.0 miles ESE 6.9 mph - 0.00 in   Mostly Cloudy
3:35 PM 51.8°F 41.0°F 67% 29.81 in 10.0 miles ESE 9.2 mph - 0.00 in   Mostly Cloudy
3:55 PM 51.8°F 41.0°F 67% 29.81 in 10.0 miles ESE 11.5 mph - 0.00 in   Scattered Clouds
4:15 PM 51.8°F 41.0°F 67% 29.81 in 10.0 miles SE 9.2 mph - 0.00 in   Mostly Cloudy
4:35 PM 51.8°F 41.0°F 67% 29.81 in 10.0 miles SSE 12.7 mph - 0.00 in   Overcast
4:55 PM 51.8°F 42.8°F 71% 29.81 in 10.0 miles SE 8.1 mph - 0.00 in   Mostly Cloudy
5:15 PM 50.0°F 44.6°F 82% 29.80 in 8.0 miles ESE 11.5 mph - 0.00 in   Mostly Cloudy
5:35 PM 48.2°F 46.4°F 93% 29.79 in 7.0 miles SSE 8.1 mph - 0.00 in   Overcast
5:55 PM 48.2°F 46.4°F 93% 29.79 in 10.0 miles East 8.1 mph - 0.01 in   Overcast
6:15 PM 46.4°F 46.4°F 100% 29.78 in 8.0 miles East 9.2 mph - 0.01 in   Overcast
6:35 PM 46.4°F 46.4°F 100% 29.77 in 10.0 miles East 8.1 mph - 0.02 in   Overcast
6:55 PM 46.4°F 46.4°F 100% 29.76 in 10.0 miles East 6.9 mph - 0.02 in   Mostly Cloudy
7:15 PM 48.2°F 46.4°F 93% 29.75 in 10.0 miles East 10.4 mph - 0.00 in   Mostly Cloudy
7:35 PM 48.2°F 46.4°F 93% 29.74 in 10.0 miles East 12.7 mph - 0.00 in   Overcast
7:55 PM 50.0°F 46.4°F 87% 29.74 in 10.0 miles ESE 12.7 mph - 0.00 in   Overcast
8:15 PM 48.2°F 46.4°F 93% 29.74 in 10.0 miles ENE 13.8 mph - 0.00 in   Overcast
8:35 PM 46.4°F 46.4°F 100% 29.74 in 6.0 miles ENE 13.8 mph - 0.02 in   Overcast
8:55 PM 46.4°F 46.4°F 100% 29.73 in 10.0 miles East 11.5 mph - 0.03 in   Overcast
9:15 PM 46.4°F 46.4°F 100% 29.72 in 10.0 miles East 13.8 mph - 0.00 in   Overcast
9:35 PM 48.2°F 46.4°F 93% 29.73 in 10.0 miles East 11.5 mph - 0.00 in   Overcast
9:55 PM 48.2°F 46.4°F 93% 29.73 in 10.0 miles East 6.9 mph - 0.00 in   Overcast
10:15 PM 48.2°F 46.4°F 93% 29.72 in 10.0 miles East 13.8 mph - 0.00 in   Overcast
10:35 PM 48.2°F 46.4°F 93% 29.71 in 10.0 miles ENE 13.8 mph - 0.00 in   Overcast
10:55 PM 48.2°F 46.4°F 93% 29.70 in 10.0 miles ENE 13.8 mph - 0.00 in   Overcast
11:15 PM 48.2°F 46.4°F 93% 29.69 in 10.0 miles ENE 10.4 mph - 0.00 in   Overcast
11:35 PM 48.2°F 46.4°F 93% 29.69 in 10.0 miles East 11.5 mph - 0.00 in   Overcast
Moon Phase
Nov. 16 Nov. 20 Nov. 28 Dec. 06 Dec. 13
Sunrise:07:19 AM (PST) Moon Rise:10:23 AM (PST)11/16
Sunset:04:28 PM (PST) Moon Set:07:31 PM (PST)11/16

Copyright © 2014 The Weather Underground, Inc.